User: anonymous   Login
Location: Unspecified
(0.0000°N, 0.0000°E)
Time: 09:30:45
(UTC+00:00)
Language:

Intelsat II F-2 - Orbit

View from above orbital plane
View from above orbital plane
View from above satellite
View from above satellite

Ground track
Ground track

The orbit data is extracted from the following two-line orbital elements,

1  2639U 67001A   17295.43029282 -.00000048 +00000-0 +00000-0 0  9991
2  2639 004.4039 297.7581 0014237 291.9519 125.5404 01.00257002087568
Epoch (UTC): 22 October 2017 10:19:37
Eccentricity: 0.0014237
inclination: 4.4039°
perigee height: 35730 km
apogee height: 35850 km
right ascension of ascending node: 297.7581°
argument of perigee: 291.9519°
revolutions per day: 1.00257002
mean anomaly at epoch: 125.5404°
orbit number at epoch: 8756

The dashed part of the orbit path shows where the satellite is in the earth's shadow,  

DLR